Location: Beaver Brook Station
(42.3793°N, 71.2203°W)
Time: 01:34:23
(UTC+00:00)

CZ-4 R/B - Pass Details

Date: 29 October 2020
Orbit: 532 x 597 km, 97.7° (Epoch: 05 December)

Event Time Altitude Azimuth Distance (km) Brightness Sun altitude
Rises 22:11:52 0° 125° (SE) 2,697 4.4 -6.3°
Reaches altitude 10° 22:14:39 10° 103° (ESE) 1,800 3.4 -6.8°
Maximum altitude 22:17:01 16° 66° (ENE) 1,463 2.9 -7.2°
Drops below altitude 10° 22:19:23 10° 28° (NNE) 1,797 3.6 -7.6°
Sets 22:22:09 0° 6° (N) 2,689 4.7 -8.1°
